星链-30413 (STARLINK-30413 )

导读

STARLINK-30413是美国太空探索技术公司(SpaceX)“星链”卫星星座的组成部分,于2023年9月9日发射。该卫星属于低轨通信卫星,旨在为全球用户提供高速低延迟的互联网覆盖服务,推进“星链”星座全球组网进程,增强星座通信容量与覆盖范围。

Basic Information
目录编号:
57814
目录名称:
STARLINK-30413
国际标识:
2023-138G
轨道中心:
EARTH
卫星名称:
星链-30413
卫星全名:
星链-30413 (STARLINK-30413 )
卫星状态:
在轨 (已飞行1091 天)
发射日期:
2023-09-09 UTC
国别 :
美国 (US)
星等 :
--
Orbit Information
数据来源 国际轨道数据
星历时间: 2026-09-04T12:49:09+0800
4小时前
查看轨道信息
半长轴: 6861.194km
偏心率: 0.0001089
轨道倾角: 43.002°
近地点辐角 274.884°
升交点赤经 306.532°
平近点角 85.189°
近地点: 482.309km
远地点: 483.805km
周期: 94.267分钟
每日圈数: 15.275774
Detailed Information
固有亮度:
5
最大亮度:
0.3
卫星平台:
Starlink v2.0 mini
覆盖范围:
全球
运营商:
太空探索技术公司
运营商所在国:
美国
制造商(研发单位):
太空探索技术公司
制造商所在国:
美国
使用方式:
暂无
Satellite Introduction
星链(Starlink)计划是由太空探索技术公司(SpaceX)提出的一个巨型低轨卫星互联网星座项目,计划在2019年至2024年间在太空搭建由约1.2万颗卫星组成的“星链”网络,其中1584颗将部署在地球上空550千米处的近地轨道,并从2020年开始工作。该卫星仍在工作。
2D Orbit Map
3D Orbit Map
Orbit Altitude Analysis Chart
Orbit Inclination Analysis Chart
Orbit Comprehensive Analysis Chart
View Comprehensive Chart
Conjunction Data List
Event ID Objects TCA Miss Dist (km) Collision Risk Probability Collision Risk Index (CRI) Action
CDM_260906-174805-781405-994321
2026-09-06T
17:48:11+0000
0.222 km
中距离
5.766108E-4 高风险 0.9
CDM_260905-005705-781406-718921
2026-09-05T
00:57:29+0000
0.306 km
远距离
3.418265E-4 高风险 0.86
CDM_260906-161405-781405-994321
2026-09-06T
16:14:02+0000
0.627 km
远距离
7.753112E-5 中风险 0.73
CDM_260904-063605-781406-762721
2026-09-04T
06:36:45+0000
0.796 km
远距离
3.670152E-5 中风险 0.66
CDM_260906-192205-781405-994321
2026-09-06T
19:22:21+0000
1.060 km
极远距离
1.41816E-5 中风险 0.58
CDM_260904-050205-781406-762721
2026-09-04T
05:02:36+0000
1.222 km
极远距离
8.526176E-6 低风险 0.54
CDM_260904-195705-781406-762721
2026-09-04T
19:57:04+0000
1.238 km
极远距离
8.153584E-6 低风险 0.53
CDM_260905-093505-781406-718921
2026-09-05T
09:35:19+0000
1.309 km
极远距离
5.98329E-6 低风险 0.51
CDM_260905-110905-781406-718921
2026-09-05T
11:09:28+0000
1.370 km
极远距离
5.131522E-6 低风险 0.49
CDM_260906-143905-781405-994321
2026-09-06T
14:39:53+0000
1.455 km
极远距离
4.821896E-6 低风险 0.49